sat.trackr.live / text

‹ back to catalog

JILIN-1 GAOFEN 03D43

NORAD 53448 · 2022-098E

PAYLOAD ACTIVE UNKNOWN

§ Identity

Operator
Country
PRC
Launch date
2022-08-10
Launch site
TAISC
Launch vehicle
Mass (kg)
RCS (m²)

External: N2YO · Heavens-Above · Gunter

§ Orbital elements

Epoch: 2026-05-25T04:52:13.483776Z

Period
91.96 min
Inclination
97.5546°
Eccentricity
0.0002895
Mean motion
15.65834907 rev/d
Perigee alt
368.9 km
Apogee alt
372.8 km
Semi-major
6,749.0 km
B*
6.8009e-4
RAAN
274.1436°
Arg perigee
109.1452°
Mean anomaly
251.0121°
Rev number
21,109

§ Raw data

JILIN-1 GAOFEN 03D431 53448U 22098E   26145.20293384  .00069275  00000+0  68009-3 0  99982 53448  97.5546 274.1436 0002895 109.1452 251.0121 15.65834907211098

JSON: /api/v1/satellites/53448 · /tle

For live sub-satellite position, see the globe view (requires WebGL).

§ Visibility from observer

Set your observer location to see the next 7 days of passes ≥ 10°. The values pass through the URL so the page stays shareable.

No JS? Fill the form by hand. The geolocation button needs JavaScript.